This is the latest recevied weather packets stored in our database for station/object VK4HIT-13. If no packets are shown the sender has not sent any weather packets the latest 10 day(s).
| Time | Temp. | Humidity | Pressure | Rain* | Wind** | Luminosity | Snow |
|---|---|---|---|---|---|---|---|
| 1777596279 | 20.56° C | 77% | 1025.4 hPa | 0 mm | - | - | - |
| 1777595979 | 20.56° C | 78% | 1025.5 hPa | 0 mm | - | - | - |
| 1777595679 | 20.56° C | 79% | 1025.5 hPa | 0 mm | - | - | - |
| 1777595379 | 20° C | 81% | 1025.6 hPa | 0 mm | - | - | - |
| 1777595079 | 20° C | 81% | 1025.8 hPa | 0 mm | - | - | - |
| 1777594780 | 20° C | 81% | 1025.8 hPa | 0 mm | - | - | - |
| 1777594479 | 20° C | 80% | 1025.8 hPa | 0 mm | - | - | - |
| 1777594179 | 20.56° C | 76% | 1025.9 hPa | 0 mm | - | - | - |
| 1777593879 | 21.11° C | 78% | 1025.7 hPa | 0 mm | - | - | - |
| 1777593579 | 20.56° C | 76% | 1025.8 hPa | 0 mm | - | - | - |
| 1777593279 | 20.56° C | 77% | 1025.7 hPa | 0 mm | - | - | - |
| 1777592979 | 20.56° C | 76% | 1025.8 hPa | 0 mm | - | - | - |
| 1777592679 | 20.56° C | 77% | 1025.6 hPa | 0 mm | - | - | - |
| 1777592379 | 20.56° C | 76% | 1025.6 hPa | 0 mm | - | - | - |
| 1777592079 | 20° C | 78% | 1025.9 hPa | 0 mm | - | - | - |
| 1777591779 | 20° C | 79% | 1025.9 hPa | 0 mm | - | - | - |
| 1777591479 | 20° C | 79% | 1025.9 hPa | 0 mm | - | - | - |
| 1777591179 | 20° C | 80% | 1025.9 hPa | 0 mm | - | - | - |
| 1777590879 | 20° C | 80% | 1025.8 hPa | 0 mm | - | - | - |
| 1777590579 | 20° C | 80% | 1025.9 hPa | 0 mm | - | - | - |
| 1777590279 | 19.44° C | 83% | 1025.9 hPa | 0 mm | - | - | - |
| 1777589979 | 18.89° C | 83% | 1025.8 hPa | 0 mm | - | - | - |
| 1777589679 | 18.33° C | 84% | 1025.9 hPa | 0 mm | - | - | - |
| 1777589379 | 18.33° C | 85% | 1025.8 hPa | 0 mm | - | - | - |
| 1777589079 | 18.33° C | 86% | 1025.7 hPa | 0 mm | - | - | - |
* Rain latest hour (hover to see other rain measurements)
** Current wind speed in m/s (hover to see current wind gust speed)